loading
|
Showing default

GHOST-4, 59133

Orbit data source: Space-Track

GHOST-4, 59133 is a payload satellite owned by Orbital Sidekick (US) in SSO that was launched on Mon, 04 Mar 2024 UTC via an FALCON 9 launch vehicle from the Air Force Western Test Range (AFWTR). Payloads include a variety of satellites, spacecraft, and rockets equipped with specific instruments for various scientific and technological missions. These include communications satellites like Starlink; space stations such as the ISS; scientific satellites like the Hubble; Earth observation satellites from companies like Planet Labs, Umbra, and HawkEye 360; GPS; miniature CubeSats for education and research; and military/defense satellites.

Loading next visibility...
Loading greatness...
GHOST-4 details
Identifier
59133, 2024-043AM
Orbit
SSO
Last TLE update7 hours ago
Origin
Flag of USOrbital Sidekick (US)
ManufacturerAstro Digital
Mission statusOperational
MissionCommercial Imaging
Bus & MotorCORVUS-XL, Unknown motor
Mass85 kg wet, 85 kg dry
Launch date (UTC)
2024-03-04 (7 months ago)
Launch vehicle
FALCON 9
Launch site
Air Force Western Test Range (AFWTR)
Object type
Payload
Rocket body
Debris
Radar Cross SectionLarge (>1 m²)

Expand to show TLE details & history

TLE from 7 hours ago
0 GHOST-4
1 59133U 24043AM  24261.59182721  .00040345  00000-0  17642-2 0  9992
2 59133  97.4868  24.7886 0011525 324.3494  35.6971 15.21897845 29858
Epoch: 2024-09-17T14:12Z
Definitive object data (Epoch: 2024-09-17T14:12:13.87Z)
Latitude-0.00006°
Longitude174.72654°
Altitude496.771 km
Speed7.62 km/s
True Right ascension01h 39m 09s
True Declination0° 00' 00"
Sunlit
Object was in full shadow at TLE epoch
Predictive object data (real-time)
Latitude-67.63815°
Longitude-23.48999°
Altitude523.467 km
Speed7.601 km/s
Apparent Right ascension04h 11m 18s
Apparent Declination-74° 21' 42"
Sunlit
Object is in daylight
Predictive observer data (real-time)
Local Sidereal Time14:25:07
Azimuth191.658° SSW
Elevation-53.405°
Doppler factor1
Orbital elements
Apogee505.007 km
Perigee489.16 km
Semi-major axis6,875.22 km
Eccentricity0.0011525
Inclination97.4868°
RAAN24.7886°
Arg. of periapsis324.3494°
True anomaly35.77425°
Mean anomaly35.6971°
Eccentric anomaly35.73567°
Mean motion3.80727 °/min
BSTAR0.0017642
Period94.56 mins
No data available

GHOST-4 Visibility forecast

Observer location: 39.9160978°, -105.1181434

GHOST-4 is not visible in the next 10 days
Span
Click to sort rows by Start time (UTC) header in descending order
Start Az.
Max El. time (UTC)
Max El. Az.
Max El.
End time (UTC)
End Az.